GW4588 Weather Reports


time (UTC)temp
C
wind
direction
speed
KPH
gust
KPH
rain 1hr
cm
rain 24hr
cm
rain mn
cm
humidity
%
barometer
mb
20260506051115 12 93 0.0 4.8 0.00 0.00 0.00 88 1010.2
20260506050614 12 86 0.0 3.2 0.00 0.00 0.00 89 1010.2
20260506050111 12 37 1.6 3.2 0.00 0.00 0.00 88 1010.1
20260506045104 12 50 0.0 3.2 0.00 0.00 0.00 87 1010.3
20260506044602 12 106 0.0 3.2 0.00 0.00 0.00 87 1010.3
20260506044058 13 156 0.0 3.2 0.00 0.00 0.00 87 1010.2
20260506043555 13 185 0.0 1.6 0.00 0.00 0.00 86 1010.3
20260506043054 13 304 3.2 9.7 0.00 0.00 0.00 85 1010.3
20260506042553 13 295 3.2 4.8 0.00 0.00 0.00 85 1010.5
20260506042050 13 31 0.0 3.2 0.00 0.00 0.00 86 1010.1
20260506041549 13 9 3.2 8.0 0.00 0.00 0.00 86 1010.3
20260506041045 13 306 0.0 1.6 0.00 0.00 0.00 85 1010.2
20260506040543 13 77 3.2 6.4 0.00 0.00 0.00 85 1010.4
20260506040038 13 258 1.6 4.8 0.00 0.00 0.00 84 1010.4
20260506035536 13 164 3.2 6.4 0.00 0.00 0.00 85 1010.3
20260506035032 14 192 0.0 6.4 0.00 0.00 0.00 84 1010.5
20260506034530 14 267 3.2 8.0 0.00 0.00 0.00 84 1010.2
20260506034026 14 140 0.0 3.2 0.00 0.00 0.00 85 1010.4
20260506033524 14 315 0.0 4.8 0.00 0.00 0.00 84 1010.4
20260506033021 14 83 1.6 4.8 0.00 0.00 0.00 85 1010.2
20260506032518 14 69 0.0 1.6 0.00 0.00 0.00 86 1010.1
20260506032015 14 108 3.2 3.2 0.00 0.00 0.00 86 1010.2
20260506031513 15 145 0.0 3.2 0.00 0.00 0.00 84 1009.8
20260506031009 15 224 0.0 3.2 0.00 0.00 0.00 84 1009.9
20260506030508 15 199 0.0 6.4 0.00 0.00 0.00 84 1009.8
20260506030005 15 317 1.6 3.2 0.00 0.00 0.00 84 1010.3
20260506025501 15 44 0.0 1.6 0.00 0.00 0.00 85 1010.2
20260506024957 15 283 0.0 3.2 0.00 0.00 0.00 84 1010.4
20260506024454 15 309 0.0 3.2 0.00 0.00 0.00 84 1010.3
20260506023950 15 331 0.0 3.2 0.00 0.00 0.00 85 1010.2
20260506023447 15 242 3.2 4.8 0.00 0.00 0.00 85 1010.4
20260506022944 15 227 1.6 3.2 0.00 0.00 0.00 84 1010.3
20260506022442 15 129 0.0 3.2 0.00 0.00 0.00 85 1010.1
20260506021940 15 0 3.2 4.8 0.00 0.00 0.00 84 1010.3
20260506021436 15 75 3.2 3.2 0.00 0.00 0.00 85 1010.4
20260506020933 15 89 3.2 6.4 0.00 0.00 0.00 85 1010.3
20260506020431 15 42 3.2 3.2 0.00 0.00 0.00 86 1010.3
20260506015928 15 320 4.8 6.4 0.00 0.00 0.00 84 1010.3
20260506015426 15 96 4.8 4.8 0.00 0.00 0.00 83 1010.5
20260506014922 15 294 0.0 4.8 0.00 0.00 0.00 81 1010.5
20260506014419 15 81 0.0 4.8 0.00 0.00 0.00 81 1010.2
20260506013916 16 101 0.0 3.2 0.00 0.00 0.00 80 1010.1
20260506013414 16 91 3.2 6.4 0.00 0.00 0.00 79 1010.1
20260506012910 16 16 3.2 4.8 0.00 0.00 0.00 80 1010.2
20260506012407 16 58 3.2 4.8 0.00 0.00 0.00 80 1010.2
20260506011904 16 93 1.6 3.2 0.00 0.00 0.00 78 1010.1
20260506011401 16 21 0.0 3.2 0.00 0.00 0.00 77 1010.2
20260506010858 16 32 0.0 4.8 0.00 0.00 0.00 76 1010.1
20260506010356 16 331 3.2 4.8 0.00 0.00 0.00 76 1010.2
20260506005852 16 66 1.6 4.8 0.00 0.00 0.00 76 1009.9
20260506005350 16 44 0.0 1.6 0.00 0.00 0.00 76 1009.7
20260506004845 16 37 0.0 3.2 0.00 0.00 0.00 76 1009.7
20260506004343 16 261 0.0 1.6 0.00 0.00 0.00 75 1009.8
20260506003839 16 230 0.0 1.6 0.00 0.00 0.00 74 1009.5
20260506003336 16 142 0.0 3.2 0.00 0.00 0.00 74 1009.6
20260506002832 16 133 1.6 3.2 0.00 0.00 0.00 73 1009.5
20260506002329 16 74 3.2 3.2 0.00 0.00 0.00 73 1009.7
20260506001824 16 113 3.2 4.8 0.00 0.00 0.00 72 1009.8
20260506001321 16 118 4.8 4.8 0.00 0.00 0.00 72 1009.4
20260506000818 16 274 4.8 8.0 0.00 0.00 0.00 72 1009.5
20260506000316 16 212 0.0 4.8 0.00 0.00 0.00 72 1009.3
20260505235813 17 242 3.2 6.4 0.00 0.00 0.00 72 1009.2
20260505235310 17 302 4.8 4.8 0.00 0.00 0.00 72 1009.2
20260505234807 17 293 4.8 9.7 0.00 0.00 0.00 72 1009.0
20260505234305 17 299 4.8 11.3 0.00 0.00 0.00 71 1008.9
20260505233802 17 246 3.2 11.3 0.00 0.00 0.00 71 1009.2
20260505233259 17 303 6.4 8.0 0.00 0.00 0.00 71 1009.1
20260505232756 17 284 4.8 16.1 0.00 0.00 0.00 72 1009.0
20260505232254 17 325 3.2 17.7 0.00 0.00 0.00 71 1008.8
20260505231750 17 105 1.6 9.7 0.00 0.00 0.00 71 1008.6
20260505231249 17 285 4.8 11.3 0.00 0.00 0.00 70 1008.4
20260505230747 17 277 8.0 12.9 0.00 0.00 0.00 70 1008.3
20260505230243 18 341 4.8 8.0 0.00 0.00 0.00 68 1008.1
20260505225740 18 266 4.8 19.3 0.00 0.00 0.00 65 1008.5
20260505225237 20 327 8.0 12.9 0.00 0.00 0.00 56 1008.4
20260505224732 22 273 4.8 9.7 0.00 0.00 0.00 40 1007.7
20260505224230 22 275 6.4 19.3 0.00 0.00 0.00 38 1007.3
20260505223727 22 216 11.3 35.4 0.00 0.00 0.00 37 1007.2
20260505223223 22 250 6.4 29.0 0.00 0.00 0.00 37 1006.8
20260505222719 22 286 3.2 11.3 0.00 0.00 0.00 39 1007.2
20260505222216 22 300 8.0 19.3 0.00 0.00 0.00 37 1007.3
20260505221713 22 256 8.0 16.1 0.00 0.00 0.00 37 1007.0
20260505221209 22 228 14.5 17.7 0.00 0.00 0.00 37 1006.7
20260505220707 23 230 4.8 19.3 0.00 0.00 0.00 36 1007.0
20260505220204 23 235 9.7 25.7 0.00 0.00 0.00 36 1006.9
20260505215702 23 233 12.9 16.1 0.00 0.00 0.00 36 1007.0
20260505215200 23 253 6.4 14.5 0.00 0.00 0.00 35 1006.7
20260505214657 23 257 9.7 37.0 0.00 0.00 0.00 34 1007.0
20260505214154 23 249 11.3 35.4 0.00 0.00 0.00 35 1006.8
20260505213652 23 242 8.0 25.7 0.00 0.00 0.00 35 1007.0
20260505213148 25 249 22.5 27.4 0.00 0.00 0.00 34 1006.8
20260505212644 25 251 8.0 46.7 0.00 0.00 0.00 36 1006.8
20260505212142 24 262 4.8 25.7 0.00 0.00 0.00 34 1006.4
20260505211639 24 255 6.4 32.2 0.00 0.00 0.00 35 1006.7
20260505211136 24 222 29.0 38.6 0.00 0.00 0.00 34 1006.5
20260505210633 24 233 17.7 45.1 0.00 0.00 0.00 34 1006.6
20260505210129 25 250 6.4 35.4 0.00 0.00 0.00 35 1006.4
20260505205627 24 208 8.0 29.0 0.00 0.00 0.00 34 1006.1
20260505205125 25 204 8.0 38.6 0.00 0.00 0.00 34 1006.6
20260505204622 25 243 12.9 27.4 0.00 0.00 0.00 33 1006.3
20260505204119 25 187 6.4 25.7 0.00 0.00 0.00 34 1006.3
20260505203615 24 274 8.0 29.0 0.00 0.00 0.00 35 1006.3
20260505203113 24 250 12.9 30.6 0.00 0.00 0.00 35 1006.5
20260505202608 25 259 14.5 43.5 0.00 0.00 0.00 35 1006.5
20260505202105 24 269 6.4 20.9 0.00 0.00 0.00 37 1006.3
20260505201601 24 246 14.5 24.1 0.00 0.00 0.00 37 1006.5
20260505201059 25 172 11.3 20.9 0.00 0.00 0.00 36 1006.4
20260505200556 24 228 11.3 33.8 0.00 0.00 0.00 37 1006.9
20260505200053 24 241 8.0 24.1 0.00 0.00 0.00 38 1006.6
20260505195549 25 145 1.6 22.5 0.00 0.00 0.00 38 1006.5
20260505195047 24 234 8.0 25.7 0.00 0.00 0.00 37 1006.7
20260505194544 25 239 19.3 27.4 0.00 0.00 0.00 38 1006.6
20260505194039 24 223 12.9 30.6 0.00 0.00 0.00 38 1006.6
20260505193537 24 245 12.9 25.7 0.00 0.00 0.00 37 1006.7
20260505193034 24 193 8.0 29.0 0.00 0.00 0.00 37 1006.6
20260505192532 25 194 27.4 32.2 0.00 0.00 0.00 36 1006.6
20260505192030 25 231 14.5 25.7 0.00 0.00 0.00 36 1007.0
20260505191522 25 257 25.7 35.4 0.00 0.00 0.00 36 1006.9
20260505191020 25 221 9.7 22.5 0.00 0.00 0.00 37 1006.8
20260505190514 25 209 6.4 29.0 0.00 0.00 0.00 35 1006.8
20260505190010 25 192 8.0 46.7 0.00 0.00 0.00 36 1007.2
20260505185507 24 236 20.9 30.6 0.00 0.00 0.00 38 1007.0
20260505185003 25 238 14.5 24.1 0.00 0.00 0.00 35 1007.1
20260505184455 25 208 11.3 24.1 0.00 0.00 0.00 35 1006.8
20260505183951 25 248 24.1 32.2 0.00 0.00 0.00 36 1007.1
20260505183449 24 137 3.2 22.5 0.00 0.00 0.00 37 1007.4
20260505182945 24 262 8.0 20.9 0.00 0.00 0.00 38 1007.1
20260505182442 23 212 8.0 32.2 0.00 0.00 0.00 38 1007.2
20260505181938 24 215 11.3 19.3 0.00 0.00 0.00 36 1007.5
20260505181435 23 190 17.7 40.2 0.00 0.00 0.00 38 1007.5
20260505180932 23 220 6.4 49.9 0.00 0.00 0.00 38 1007.6
20260505180428 25 248 12.9 48.3 0.00 0.00 0.00 36 1008.1
20260505175925 24 240 17.7 37.0 0.00 0.00 0.00 37 1007.8
20260505175421 25 226 8.0 46.7 0.00 0.00 0.00 36 1008.1
20260505174918 24 251 14.5 30.6 0.00 0.00 0.00 37 1008.0
20260505174415 25 242 8.0 24.1 0.00 0.00 0.00 36 1007.8
20260505173911 25 234 12.9 17.7 0.00 0.00 0.00 38 1007.8
20260505173408 23 238 19.3 27.4 0.00 0.00 0.00 38 1008.1
20260505172906 24 242 9.7 27.4 0.00 0.00 0.00 36 1007.7
20260505172403 25 214 9.7 38.6 0.00 0.00 0.00 37 1008.3
20260505171902 24 171 16.1 24.1 0.00 0.00 0.00 36 1008.0
20260505171359 25 221 16.1 45.1 0.00 0.00 0.00 37 1008.3
20260505170856 24 233 8.0 41.8 0.00 0.00 0.00 37 1008.1
20260505170353 23 242 8.0 25.7 0.00 0.00 0.00 39 1008.1
20260505165848 24 223 8.0 22.5 0.00 0.00 0.00 39 1008.2
20260505165344 23 246 11.3 33.8 0.00 0.00 0.00 41 1008.3
20260505164840 23 247 4.8 19.3 0.00 0.00 0.00 42 1008.2
20260505164336 23 217 6.4 14.5 0.00 0.00 0.00 41 1008.3
20260505163835 23 267 4.8 22.5 0.00 0.00 0.00 41 1008.2
20260505163333 23 285 12.9 20.9 0.00 0.00 0.00 41 1008.8
20260505162832 23 208 9.7 29.0 0.00 0.00 0.00 42 1008.5
20260505162327 23 229 6.4 19.3 0.00 0.00 0.00 42 1008.5
20260505161825 23 226 4.8 20.9 0.00 0.00 0.00 44 1008.8
20260505161322 23 185 9.7 40.2 0.00 0.00 0.00 40 1009.0
20260505160819 23 230 9.7 16.1 0.00 0.00 0.00 43 1009.0
20260505160317 22 243 12.9 27.4 0.00 0.00 0.00 45 1009.1
20260505153250 22 243 9.7 19.3 0.00 0.00 0.00 48 1009.2
20260505152747 22 222 17.7 20.9 0.00 0.00 0.00 47 1009.4
20260505152243 21 240 8.0 14.5 0.00 0.00 0.00 52 1009.4
20260505151738 21 256 6.4 11.3 0.00 0.00 0.00 52 1009.4
20260505151236 21 250 6.4 11.3 0.00 0.00 0.00 54 1009.6
20260505150732 20 220 6.4 14.5 0.00 0.00 0.00 55 1009.6
20260505150229 20 236 6.4 11.3 0.00 0.00 0.00 58 1009.9
20260505140154 17 146 4.8 9.7 0.00 0.00 0.00 61 1009.8
20260505130118 13 240 4.8 11.3 0.00 0.00 0.00 75 1010.1
20260505124607 12 347 0.0 8.0 0.00 0.00 0.00 75 1010.1
20260505124103 12 205 3.2 3.2 0.00 0.00 0.00 75 1009.8
20260505123600 12 157 1.6 8.0 0.00 0.00 0.00 75 1009.8
20260505123057 12 309 0.0 3.2 0.00 0.00 0.00 74 1009.7
20260505122553 12 127 3.2 4.8 0.00 0.00 0.00 76 1009.8
20260505122050 12 57 3.2 4.8 0.00 0.00 0.00 75 1009.8
20260505121546 11 42 3.2 6.4 0.00 0.00 0.00 77 1009.8
20260505121043 11 197 3.2 4.8 0.00 0.00 0.00 80 1009.8
20260505120540 11 125 1.6 4.8 0.00 0.00 0.00 79 1010.2
20260505120035 11 243 1.6 3.2 0.00 0.00 0.00 80 1009.9
20260505115530 10 186 0.0 3.2 0.00 0.00 0.00 82 1010.1
20260505115028 10 141 0.0 3.2 0.00 0.00 0.00 82 1010.1
20260505114525 10 78 0.0 3.2 0.00 0.00 0.00 84 1009.9
20260505114021 9 66 0.0 4.8 0.00 0.00 0.00 85 1009.9
20260505113518 10 123 1.6 3.2 0.00 0.00 0.00 85 1009.9
20260505113015 10 142 4.8 4.8 0.00 0.00 0.00 84 1009.7
20260505112511 8 91 0.0 4.8 0.00 0.00 0.00 87 1010.1
20260505112009 8 117 1.6 4.8 0.00 0.00 0.00 89 1009.7
20260505111508 8 171 1.6 3.2 0.00 0.00 0.00 89 1009.6
20260505111004 7 87 0.0 3.2 0.00 0.00 0.00 90 1009.4
20260505110500 7 135 3.2 6.4 0.00 0.00 0.00 90 1009.6
20260505101932 7 186 0.0 3.2 0.00 0.00 0.00 93 1009.3
20260505101426 6 226 1.6 4.8 0.00 0.00 0.00 94 1009.2
20260505100922 6 82 0.0 3.2 0.00 0.00 0.00 93 1009.1
20260505100419 6 92 3.2 6.4 0.00 0.00 0.00 93 1008.9
20260505095915 6 86 1.6 4.8 0.00 0.00 0.00 94 1008.9
20260505095412 6 49 1.6 4.8 0.00 0.00 0.00 93 1008.9
20260505094908 6 39 0.0 3.2 0.00 0.00 0.00 93 1009.0
20260505094406 6 117 3.2 3.2 0.00 0.00 0.00 93 1009.1
20260505093901 6 81 3.2 4.8 0.00 0.00 0.00 93 1009.0
20260505093359 6 41 3.2 4.8 0.00 0.00 0.00 92 1008.9
20260505092856 6 65 3.2 4.8 0.00 0.00 0.00 92 1009.1
20260505092354 7 37 3.2 4.8 0.00 0.00 0.00 91 1008.9
20260505091850 7 113 1.6 4.8 0.00 0.00 0.00 92 1009.2
20260505091349 7 274 0.0 4.8 0.00 0.00 0.00 90 1009.2
20260505090846 7 100 3.2 4.8 0.00 0.00 0.00 88 1009.0
20260505090344 8 149 3.2 4.8 0.00 0.00 0.00 86 1009.2
20260505085841 7 101 6.4 8.0 0.00 0.00 0.00 85 1009.2
20260505085339 7 53 3.2 4.8 0.00 0.00 0.00 87 1009.1
20260505084837 7 107 3.2 6.4 0.00 0.00 0.00 87 1009.1
20260505084335 7 47 0.0 6.4 0.00 0.00 0.00 87 1009.2
20260505083832 7 43 1.6 3.2 0.00 0.00 0.00 87 1009.4
20260505083329 7 72 3.2 3.2 0.00 0.00 0.00 87 1009.6
20260505082826 7 185 0.0 4.8 0.00 0.00 0.00 86 1009.4
20260505082322 7 72 4.8 4.8 0.00 0.00 0.00 86 1009.6
20260505081819 7 38 1.6 6.4 0.00 0.00 0.00 86 1009.5
20260505081315 7 94 1.6 4.8 0.00 0.00 0.00 86 1009.5
20260505080812 7 80 3.2 4.8 0.00 0.00 0.00 86 1009.6
20260505080308 7 98 3.2 4.8 0.00 0.00 0.00 86 1009.5
20260505075803 7 53 3.2 6.4 0.00 0.00 0.00 86 1009.4
20260505075301 7 21 4.8 6.4 0.00 0.00 0.00 86 1009.4
20260505074758 7 11 4.8 6.4 0.00 0.00 0.00 86 1009.4
20260505074255 7 30 6.4 6.4 0.00 0.00 0.00 86 1009.3
20260505073753 7 21 4.8 6.4 0.00 0.00 0.00 86 1009.4
20260505073250 7 27 4.8 4.8 0.00 0.00 0.00 85 1009.5
20260505072747 7 97 1.6 4.8 0.00 0.00 0.00 85 1009.6
20260505072243 7 63 3.2 4.8 0.00 0.00 0.00 85 1009.2
20260505071739 7 0 1.6 6.4 0.00 0.00 0.00 85 1009.6
20260505071236 7 40 3.2 4.8 0.00 0.00 0.00 85 1009.5
20260505070734 7 29 3.2 4.8 0.00 0.00 0.00 87 1009.4
20260505070230 7 212 0.0 4.8 0.00 0.00 0.00 87 1009.5
20260505065725 7 346 4.8 6.4 0.00 0.00 0.00 88 1009.4
20260505065222 6 40 3.2 4.8 0.00 0.00 0.00 90 1009.6
20260505064719 6 8 3.2 4.8 0.00 0.00 0.00 91 1009.6
20260505064217 6 61 6.4 8.0 0.00 0.00 0.00 91 1009.6
20260505063715 6 95 0.0 3.2 0.00 0.00 0.00 91 1009.6
20260505063210 6 76 0.0 4.8 0.00 0.00 0.00 90 1009.6
20260505062707 6 26 3.2 4.8 0.00 0.00 0.00 89 1009.9
20260505062205 6 26 1.6 3.2 0.00 0.00 0.00 89 1009.5
20260505061701 6 41 0.0 4.8 0.00 0.00 0.00 89 1009.6
20260505061200 6 27 0.0 6.4 0.00 0.00 0.00 89 1009.8
20260505060657 6 33 4.8 4.8 0.00 0.00 0.00 90 1009.7
20260505060153 6 54 0.0 6.4 0.00 0.00 0.00 90 1009.8